Date,TemperatureHighF,TemperatureAvgF,TemperatureLowF,DewpointHighF,DewpointAvgF,DewpointLowF,HumidityHigh,HumidityAvg,HumidityLow,PressureMaxIn,PressureMinIn,WindSpeedMaxMPH,WindSpeedAvgMPH,GustSpeedMaxMPH,PrecipitationSumIn
2013-9-1,91.8,84.2,77.7,79.0,75.1,72.3,87,75,55,30.00,29.92,11,2,13,0.01
2013-9-2,92.3,85.0,80.4,78.8,75.0,70.3,86,73,51,30.03,29.94,10,2,11,0.01
2013-9-3,93.7,85.4,79.5,77.0,74.9,72.1,86,72,55,30.04,29.94,8,1,9,0.01
2013-9-4,96.8,82.7,72.5,79.3,75.1,69.1,92,79,52,30.11,29.98,23,1,38,0.01
2013-9-5,99.0,83.7,75.4,79.5,75.5,71.4,90,77,52,30.11,30.00,10,1,12,0.00
2013-9-6,92.1,81.3,75.7,80.1,74.4,70.5,88,80,66,30.07,29.96,21,2,26,0.00
2013-9-7,94.8,80.9,72.5,76.6,72.2,68.4,89,76,47,30.04,29.93,11,1,13,0.00
2013-9-8,94.5,82.9,75.0,75.6,73.0,70.7,89,73,52,29.99,29.87,12,1,14,0.00
2013-9-9,99.1,84.6,76.3,76.6,73.0,69.4,86,70,42,30.04,29.94,15,2,15,0.07
2013-9-10,97.3,84.7,76.6,75.7,72.6,67.6,88,69,43,30.09,30.00,16,3,16,0.01
2013-9-11,98.4,84.6,75.9,77.2,72.6,66.6,88,69,39,30.09,29.99,17,4,22,0.00
2013-9-12,91.4,82.3,76.6,77.0,74.2,72.1,88,77,55,30.04,29.89,15,2,17,0.00
2013-9-13,90.9,82.2,77.0,79.3,74.3,72.3,87,77,64,29.92,29.83,9,1,13,0.00
2013-9-14,94.3,84.2,77.4,77.9,74.8,72.5,89,74,54,29.99,29.85,8,1,8,0.00
2013-9-15,99.1,82.7,75.0,79.3,74.7,69.1,87,78,49,30.09,29.97,49,4,49,0.00
2013-9-16,94.6,80.9,75.4,78.6,73.7,70.7,89,80,55,30.08,29.98,25,2,38,0.00
2013-9-17,98.1,81.8,74.7,77.7,73.5,71.2,91,77,47,30.07,29.95,20,2,25,0.00
2013-9-18,95.2,81.1,75.6,77.7,73.9,71.8,90,79,55,30.04,29.97,19,2,23,0.00
2013-9-19,92.7,80.2,75.2,77.5,73.9,71.4,90,82,61,30.07,29.97,16,2,19,0.00
2013-9-20,95.0,82.1,74.7,75.2,72.4,68.9,87,74,51,30.04,29.90,18,2,21,0.00
2013-9-21,93.4,82.7,77.2,75.2,72.1,68.7,83,71,46,29.95,29.79,19,5,21,0.00
2013-9-22,86.5,82.5,77.7,79.2,75.6,72.1,91,80,70,29.86,29.76,15,2,17,0.00
2013-9-23,82.6,79.9,76.5,77.4,76.0,73.4,93,88,83,29.96,29.83,17,6,21,0.00
2013-9-24,81.5,78.6,74.8,76.6,74.7,72.0,93,88,83,29.96,29.85,18,5,22,0.00
2013-9-25,80.4,76.2,70.3,76.8,72.6,68.0,93,89,81,29.92,29.80,21,2,21,0.00
2013-9-26,88.5,81.9,75.2,77.9,75.1,69.8,91,80,66,29.89,29.80,12,2,13,0.00
2013-9-27,90.1,78.0,70.2,74.7,69.9,66.9,90,77,54,29.99,29.88,14,1,15,0.00
2013-9-28,95.2,79.2,70.9,75.2,71.1,67.6,90,78,47,30.01,29.93,16,2,22,0.00
2013-9-29,89.2,79.4,70.7,73.4,70.0,66.4,88,74,52,30.01,29.91,10,1,13,0.00
2013-9-30,94.3,80.4,73.9,75.4,71.6,68.9,88,75,47,30.01,29.93,12,1,13,0.00